Gallup, NM

11:15 PM MST on November 21, 2017 (GMT -0700)
Gallup Municipal

Weather History for KGUP - June, 2012

Change the Weather History Date:

Wednesday, June 27, 2012

  Actual Average Record
Temperature  
Mean Temperature 71 °F -  
Max Temperature 91 °F 86 °F 98 °F (1990)
Min Temperature 53 °F 46 °F 36 °F (1985)
Cooling Degree Days 6    
Growing Degree Days 21 (Base 50)    
Moisture  
Dew Point 45 °F    
Average Humidity 45    
Maximum Humidity 83    
Minimum Humidity 16    
Precipitation  
Precipitation 0.00 in - - ()
Sea Level Pressure  
Sea Level Pressure 29.73 in    
Wind  
Wind Speed 6 mph (SW)    
Max Wind Speed 24 mph    
Max Gust Speed 37 mph    
Visibility 10 miles    
Events      
Averages and records for this station are not official NWS values.
T = Trace of Precipitation, MM = Missing Value Source: NWS Daily Summary

Daily Weather History Graph

Daily Weather History Graph

Search for Another Location

Airport or City:

Trip Planner

Search our weather history database for the weather conditions in past years. The results will help you decide how hot, cold, wet, or windy it might be!

Date:

Astronomy

Jun. 27, 2012 Rise Set
Actual Time 6:02 AM MDT 8:34 PM MDT
Civil Twilight 5:32 AM MDT 9:04 PM MDT
Nautical Twilight 4:55 AM MDT 9:41 PM MDT
Astronomical Twilight 4:13 AM MDT 10:22 PM MDT
Moon 2:10 PM MDT (6/27) 12:53 AM MDT (6/27)
Length of Visible Light 15h 32m
Length of Day
14h 32m
First Quarter, 57% of the Moon is Illuminated
Jun 27
First Quarter
Jul 3
Full
Jul 10
Last Quarter
Jul 18
New
Jul 26
First Quarter

Hourly Weather History & Observations

Time (MDT) Temp. Dew Point Humidity Pressure Visibility Wind Dir Wind Speed Gust Speed Precip Events Conditions
12:53 AM 60.1 °F 52.0 °F 75% 29.65 in 10.0 mi East 5.8 mph - N/A   Clear
1:53 AM 59.0 °F 51.1 °F 75% 29.63 in 10.0 mi Calm Calm - N/A   Clear
2:53 AM 57.9 °F 51.1 °F 78% 29.61 in 10.0 mi Calm Calm - N/A   Clear
3:53 AM 55.9 °F 48.9 °F 77% 29.65 in 10.0 mi Calm Calm - N/A   Clear
4:53 AM 54.0 °F 48.9 °F 83% 29.76 in 10.0 mi Calm Calm - N/A   Clear
5:53 AM 53.1 °F 48.0 °F 83% 29.75 in 10.0 mi Calm Calm - N/A   Clear
6:53 AM 54.0 °F 48.9 °F 83% 29.74 in 10.0 mi Calm Calm - N/A   Clear
7:53 AM 63.0 °F 48.0 °F 58% 29.82 in 10.0 mi Calm Calm - N/A   Clear
8:53 AM 69.1 °F 48.9 °F 49% 29.78 in 10.0 mi Variable 3.5 mph - N/A   Clear
9:53 AM 77.0 °F 51.1 °F 40% 29.71 in 10.0 mi Calm Calm - N/A   Clear
10:53 AM 81.0 °F 50.0 °F 34% 29.70 in 10.0 mi NNW 8.1 mph - N/A   Clear
11:53 AM 84.0 °F 46.0 °F 26% 29.67 in 10.0 mi West 8.1 mph - N/A   Clear
12:53 PM 89.1 °F 41.0 °F 19% 29.66 in 10.0 mi WSW 17.3 mph 23.0 mph N/A   Scattered Clouds
1:53 PM 88.0 °F 37.9 °F 17% 29.66 in 10.0 mi SSW 10.4 mph 24.2 mph N/A   Partly Cloudy
2:53 PM 88.0 °F 37.0 °F 16% 29.67 in 10.0 mi SW 16.1 mph 26.5 mph N/A   Clear
3:53 PM 82.9 °F 41.0 °F 23% 29.72 in 10.0 mi SE 20.7 mph 36.8 mph N/A   Partly Cloudy
4:53 PM 84.9 °F 37.9 °F 19% 29.71 in 10.0 mi South 16.1 mph 25.3 mph N/A   Clear
5:53 PM 84.0 °F 39.9 °F 21% 29.74 in 10.0 mi WSW 20.7 mph 29.9 mph N/A   Partly Cloudy
6:00 PM 84.2 °F 39.2 °F 20% 30.21 in 10.0 mi WSW 24.2 mph 28.8 mph N/A   Partly Cloudy
6:53 PM 80.1 °F 41.0 °F 25% 29.78 in 10.0 mi West 11.5 mph - N/A   Clear
7:53 PM 78.1 °F 42.1 °F 28% 29.73 in 10.0 mi WSW 11.5 mph - N/A   Clear
8:53 PM 72.0 °F 42.1 °F 34% 29.73 in 10.0 mi ESE 4.6 mph - N/A   Clear
9:53 PM 69.1 °F 43.0 °F 39% 29.72 in 10.0 mi Variable 3.5 mph - N/A   Clear
10:53 PM 64.0 °F 43.0 °F 46% 29.75 in 10.0 mi Calm Calm - N/A   Clear
11:53 PM 62.1 °F 44.1 °F 52% 29.77 in 10.0 mi South 4.6 mph - N/A   Clear